FW3129 Weather Reports


Display with metric or nautical units.
time (UTC)temp
F
wind
direction
speed
MPH
gust
MPH
rain 1hr
in
rain 24hr
in
rain mn
in
humidity
%
barometer
mb
20260507090028 78 94 1.0 6.0 0.00 0.00 0.00 83 1016.7
20260507084539 78 135 3.0 7.0 0.00 0.00 0.00 82 1016.6
20260507083030 78 95 2.0 8.0 0.00 0.00 0.00 82 1016.7
20260507081535 78 194 2.0 6.0 0.00 0.00 0.00 83 1016.9
20260507080028 78 153 1.0 4.0 0.00 0.00 0.00 83 1017.0
20260507074526 78 126 1.0 7.0 0.00 0.00 0.00 83 1016.9
20260507073028 78 124 0.0 3.0 0.00 0.00 0.00 83 1017.0
20260507071529 78 0 0.0 3.0 0.00 0.00 0.00 82 1017.0
20260507070029 78 0 0.0 10.0 0.00 0.00 0.00 81 1016.8
20260507064528 78 96 0.0 4.0 0.00 0.00 0.00 81 1017.2
20260507063034 78 110 1.0 4.0 0.00 0.00 0.00 81 1017.5
20260507061530 77 0 0.0 1.0 0.00 0.00 0.00 80 1017.7
20260507060030 77 0 0.0 0.0 0.00 0.00 0.00 78 1017.8
20260507054528 78 0 0.0 4.0 0.00 0.00 0.00 78 1017.8
20260507053030 78 0 0.0 0.0 0.00 0.00 0.00 77 1017.9
20260507051528 78 101 0.0 2.0 0.00 0.00 0.00 75 1018.0
20260507050032 78 0 0.0 2.0 0.00 0.00 0.00 75 1018.3
20260507044528 78 0 1.0 5.0 0.00 0.00 0.00 74 1018.3
20260507043029 79 106 0.0 2.0 0.00 0.00 0.00 74 1018.4
20260507041530 79 111 0.0 4.0 0.00 0.00 0.00 74 1018.5
20260507040029 79 112 0.0 4.0 0.00 0.00 0.00 73 1018.5
20260507034534 79 84 0.0 5.0 0.00 0.00 0.00 73 1018.7
20260507033030 79 0 0.0 6.0 0.00 0.00 0.00 72 1018.8
20260507031527 79 94 0.0 5.0 0.00 0.00 0.00 71 1018.8
20260507030028 79 87 0.0 3.0 0.00 0.00 0.00 72 1018.7
20260507024527 79 76 0.0 4.0 0.00 0.00 0.00 71 1018.7
20260507023026 79 90 0.0 4.0 0.00 0.00 0.00 72 1018.6
20260507021529 79 92 0.0 3.0 0.00 0.00 0.00 70 1018.7
20260507020045 79 102 0.0 7.0 0.00 0.00 0.00 72 1018.6
20260507014531 79 131 0.0 4.0 0.00 0.00 0.00 73 1018.6
20260507013027 79 0 0.0 4.0 0.00 0.00 0.00 75 1018.6
20260507011540 79 84 0.0 1.0 0.00 0.00 0.00 78 1018.7
20260507010033 79 0 0.0 4.0 0.00 0.00 0.00 78 1018.6
20260507004527 79 91 0.0 5.0 0.00 0.00 0.00 79 1018.7
20260507003030 79 0 0.0 6.0 0.00 0.00 0.00 80 1018.4
20260507001600 80 85 0.0 4.0 0.00 0.00 0.00 81 1018.3
20260507000026 80 84 1.0 7.0 0.00 0.00 0.00 81 1018.3
20260506234528 80 0 3.0 10.0 0.00 0.00 0.00 80 1018.1
20260506233030 80 71 2.0 8.0 0.00 0.00 0.00 81 1018.1
20260506231527 81 96 1.0 7.0 0.00 0.00 0.00 81 1018.0
20260506230048 81 110 3.0 9.0 0.00 0.00 0.00 80 1018.1
20260506224526 82 142 1.0 7.0 0.00 0.00 0.00 78 1017.9
20260506223032 82 139 2.0 8.0 0.00 0.00 0.00 78 1017.7
20260506221529 83 102 2.0 8.0 0.00 0.00 0.00 77 1017.5
20260506220035 82 319 4.0 11.0 0.00 0.00 0.00 78 1017.5
20260506214529 83 80 3.0 8.0 0.00 0.00 0.00 76 1017.5
20260506213028 83 98 3.0 11.0 0.00 0.00 0.00 78 1017.3
20260506211528 83 96 4.0 11.0 0.00 0.00 0.00 76 1017.2
20260506210046 83 74 2.0 10.0 0.00 0.00 0.00 77 1017.2
20260506204527 84 134 2.0 10.0 0.00 0.00 0.00 77 1017.3
20260506203030 84 32 4.0 9.0 0.00 0.00 0.00 76 1017.4
20260506201528 85 131 3.0 7.0 0.00 0.00 0.00 75 1017.6
20260506200032 84 65 2.0 11.0 0.00 0.00 0.00 76 1017.7
20260506194530 84 104 4.0 10.0 0.00 0.00 0.00 76 1017.7
20260506193035 85 71 3.0 9.0 0.00 0.00 0.00 76 1017.9
20260506191530 85 23 4.0 13.0 0.00 0.00 0.00 76 1018.1
20260506190031 84 94 3.0 10.0 0.00 0.00 0.00 76 1018.2
20260506184536 84 86 3.0 11.0 0.00 0.00 0.00 76 1018.5
20260506183028 84 68 4.0 13.0 0.00 0.00 0.00 76 1018.6
20260506181537 85 85 3.0 9.0 0.00 0.00 0.00 75 1018.6
20260506180033 86 104 1.0 10.0 0.00 0.00 0.00 75 1018.8
20260506174534 86 81 2.0 9.0 0.00 0.00 0.00 74 1018.8
20260506173029 85 86 2.0 9.0 0.00 0.00 0.00 76 1019.0
20260506171532 84 89 4.0 8.0 0.00 0.00 0.00 77 1019.2
20260506170031 85 114 3.0 10.0 0.00 0.00 0.00 76 1019.3
20260506164545 85 59 3.0 9.0 0.00 0.00 0.00 75 1019.3
20260506163030 86 110 3.0 9.0 0.00 0.00 0.00 74 1019.5
20260506161528 85 127 1.0 7.0 0.00 0.00 0.00 76 1019.5
20260506160030 85 170 1.0 8.0 0.00 0.00 0.00 77 1019.5
20260506154529 84 117 3.0 7.0 0.00 0.00 0.00 77 1019.5
20260506153030 84 148 2.0 6.0 0.00 0.00 0.00 77 1019.4
20260506151530 84 140 4.0 8.0 0.00 0.00 0.00 77 1019.4
20260506150030 85 53 2.0 8.0 0.00 0.00 0.00 77 1019.3
20260506144530 84 210 4.0 9.0 0.00 0.00 0.00 75 1019.1
20260506143031 85 148 2.0 6.0 0.00 0.00 0.00 76 1019.1
20260506141533 83 144 2.0 6.0 0.00 0.00 0.00 78 1019.0
20260506140030 83 110 2.0 7.0 0.00 0.00 0.00 79 1018.9
20260506134527 83 82 1.0 7.0 0.00 0.00 0.00 79 1018.9
20260506133029 83 93 1.0 5.0 0.00 0.00 0.00 79 1018.7
20260506131528 82 85 1.0 6.0 0.00 0.00 0.00 82 1018.7
20260506130028 81 92 1.0 5.0 0.00 0.00 0.00 82 1018.7
20260506124530 80 89 1.0 7.0 0.00 0.00 0.00 84 1018.8
20260506123028 80 108 0.0 4.0 0.00 0.00 0.00 85 1018.7
20260506121529 80 129 0.0 4.0 0.00 0.00 0.00 85 1018.5
20260506120048 79 91 1.0 4.0 0.00 0.00 0.00 85 1018.4
20260506114532 79 75 0.0 5.0 0.00 0.00 0.00 86 1018.3
20260506113028 78 95 0.0 2.0 0.00 0.00 0.00 88 1018.2
20260506111527 77 0 0.0 1.0 0.00 0.00 0.00 89 1018.1
20260506110030 76 0 0.0 2.0 0.00 0.00 0.00 90 1017.9
20260506104538 76 0 0.0 0.0 0.00 0.00 0.00 90 1017.8
20260506103039 76 0 0.0 2.0 0.00 0.00 0.00 90 1017.6
20260506101528 76 0 0.0 1.0 0.00 0.00 0.00 90 1017.7
20260506100027 76 0 0.0 2.0 0.00 0.00 0.00 90 1017.5
20260506094528 76 0 0.0 1.0 0.00 0.00 0.00 90 1017.5
20260506093028 76 0 0.0 2.0 0.00 0.00 0.00 89 1017.4
20260506091528 76 0 0.0 2.0 0.00 0.00 0.00 90 1017.4